Home   Weather   Kosti   Past weeks
Flag for Sudan

Past Weather in Kosti, Sudan — Yesterday and Last 2 Weeks

Now
90 °F

Sunny.


Feels Like: 87 °F
Forecast: 99 / 81 °F
Wind: 2 mph from North

Location: Khartoum Airport

Current Time: May 27, 2019 at 1:44:16 pm

Latest Report: May 27, 2019 at 5:30 am


Visibility: 10 mi

Pressure: 29.74 "Hg

Humidity: 29%

Dew Point: 54 °F

Location of KostiLocation

Past Weather in Kosti — Graph

°F

Kosti Temperature Yesterday

Maximum temperature yesterday: 104 °F (at 3:00 pm)
Minimum temperature yesterday: 84 °F (at 4:00 am)
Average temperature yesterday: 93 °F

High & Low Weather Summary for the Past Weeks

 TemperatureHumidityPressure
High111 °F (May 17, 2:00 pm)52% (May 25, 7:30 am)29.92 "Hg (May 25, 7:30 am)
Low75 °F (May 24, 2:00 am)3% (May 16, 5:00 pm)29.62 "Hg (May 18, 4:00 pm)
Average96 °F14%29.77 "Hg
* Reported May 12 5:00 am — May 27 5:30 am, Kosti. Weather by CustomWeather, © 2019

Note: Actual official high and low records may vary slightly from our data, if they occured in-between our weather recording intervals... More about our weather records

Advertising

Kosti Weather History for the Previous 24 Hours

Scroll right to see more
 ConditionsComfort  
Time TempWeatherWind HumidityBarometerVisibility
5:30 am
Mon, May 27
90 °FSunny.2 mph29%29.74 "Hg10 mi
5:00 am90 °FClear.3 mph29%29.74 "Hg10 mi
4:30 am90 °FClear.2 mph29%29.74 "Hg10 mi
4:00 am90 °FClear.2 mph29%29.74 "Hg10 mi
3:00 am91 °FClear.2 mph26%29.71 "Hg10 mi
2:30 am91 °FClear.3 mph26%29.71 "Hg10 mi
2:00 am91 °FClear.5 mph26%29.71 "Hg10 mi
1:30 am91 °FClear.5 mph26%29.71 "Hg10 mi
1:00 am93 °FClear.7 mph26%29.71 "Hg10 mi
12:30 am93 °FClear.7 mph26%29.74 "Hg10 mi
12:00 am93 °FClear.6 mph26%29.74 "Hg10 mi
11:00 pm
Sun, May 26
95 °FClear.3 mph23%29.74 "Hg10 mi
10:30 pm95 °FClear.5 mph23%29.77 "Hg10 mi
10:00 pm97 °FClear.3 mph22%29.77 "Hg10 mi
9:30 pm97 °FClear.3 mph22%29.77 "Hg10 mi
9:00 pm97 °FClear.5 mph22%29.74 "Hg10 mi
8:30 pm99 °FClear.9 mph21%29.74 "Hg10 mi
8:00 pm99 °FClear.3 mph21%29.74 "Hg10 mi
7:30 pm99 °FClear.3 mph21%29.74 "Hg10 mi
6:30 pm100 °FPassing clouds.3 mph18%29.71 "HgN/A
6:00 pm100 °FPassing clouds.5 mph18%29.71 "HgN/A
5:30 pm102 °FPassing clouds.7 mph17%29.71 "HgN/A
5:00 pm102 °FPassing clouds.7 mph17%29.71 "HgN/A
4:30 pm102 °FPassing clouds.6 mph21%29.71 "HgN/A
4:00 pm102 °FPassing clouds.3 mph21%29.71 "HgN/A
3:30 pm104 °FPassing clouds.6 mph19%29.71 "HgN/A
3:00 pm104 °FPassing clouds.5 mph19%29.74 "HgN/A
2:00 pm102 °FPassing clouds.5 mph21%29.77 "HgN/A
1:30 pm102 °FSunny.6 mph23%29.77 "Hg10 mi
1:00 pm100 °FSunny.7 mph25%29.77 "Hg10 mi
Weather by CustomWeather, © 2019

See weather overview